Regional Weather Roundup
Issued by NWS

Home | Current Version | Previous Version | Text Only | Print | Product List | Glossary Off
Versions: 1 2 3 4 5 6 7 8 9 10 11 12 13 14 15 16 17 18 19 20 21 22 23 24 25 26 27 28 29 30 31 32 33 34 35 36 37 38 39 40 41 42 43 44 45 46 47 48 49 50

000
ASUS43 KIND 262309
RWRIN

WEATHER ROUNDUP FOR INDIANA
NATIONAL WEATHER SERVICE INDIANAPOLIS IN
700 PM EDT MON SEP 26 2016

NOTE: "FAIR" INDICATES FEW OR NO CLOUDS BELOW 12,000 FEET WITH NO
SIGNIFICANT WEATHER AND/OR OBSTRUCTIONS TO VISIBILITY.

* - STATION DOES NOT REPORT WEATHER SUCH AS PRECIPITATION OR FOG.

+ - STATION NOT QUALITY CONTROLLED BY THE NATIONAL WEATHER SERVICE.
    USE DATA WITH CAUTION...ESPECIALLY DEWPOINT AND RELATIVE
    HUMIDITY OBSERVATIONS.

INZ001>003-010>013-019-020-270000-
NORTHWEST INDIANA

CITY           SKY/WX    TMP DP  RH WIND       PRES   REMARKS
GARY /AIRPORT/ CLEAR     70  30  23 W17       29.94S
KNOX *+        PTCLDY   N/A N/A N/A W9G20     29.94S
LA PORTE +     CLEAR     68  32  26 W12       29.94S
MICHIGAN CITY+ CLEAR     64  37  36 MISG      29.94S
MONTICELLO +   CLEAR     69  22  16 W12G17    29.96S
RENSSELAER +   CLEAR     68  28  22 W8        29.96S
VALPARAISO     CLEAR     66  34  30 W12G22    29.94S

$$

LMZ046-743>745-270000-
SOUTHERN LAKE MICHIGAN

STATION/POSITION TIME  TEMP    WIND        PRES    WAVE
                       AIR SEA DIR/SP/G            HT
                 (UTC) (F)     (DEG/KT/KT) (MB)    (FT)
BURNS HARBOR     2203   68     260/ 22     1013.5F
MICHIGAN CITY    2200   67     240/ 25/ 27   N/A
5NW MICH CITY    2300   69 67  270/ 21/ 27   N/A     5

$$

INZ004-005-014>016-021>024-270000-
NORTH CENTRAL INDIANA

CITY           SKY/WX    TMP DP  RH WIND       PRES   REMARKS
ELKHART        CLEAR    N/A N/A N/A W9        29.93R
GOSHEN         CLEAR     64  36  35 W10       29.93S
LOGANSPORT +   CLEAR     64  36  34 W12G17    29.97S
PERU/GRISSOM   CLEAR     68  34  28 W15       29.95S
ROCHESTER +    CLEAR     70  34  26 W14       29.96R
SOUTH BEND     CLEAR     64  39  39 W10       29.93S
WARSAW +       CLEAR     64  28  25 W12G22    29.94S

$$

INZ006>009-017-018-025>027-270000-
NORTHEAST INDIANA

CITY           SKY/WX    TMP DP  RH WIND       PRES   REMARKS
ANGOLA *+        N/A     66  57  72 W10       29.93R
AUBURN +       CLEAR     64  34  32 W8G17     29.95R
FORT WAYNE     PTCLDY    68  34  28 W14       29.95R
HUNTINGTON +   CLEAR    N/A N/A N/A W12       29.95S
KENDALLVILLE + CLEAR     64  38  37 W13       29.94R

$$

INZ028-029-035-036-043>045-051>053-270000-
WEST CENTRAL INDIANA

CITY           SKY/WX    TMP DP  RH WIND       PRES   REMARKS
CRAWFORDSVL +  CLEAR     66  39  36 W5        30.01S
GREENCASTLE +  CLEAR     66  45  45 W3        30.03S
LAFAYETTE      CLEAR     66  38  35 W8        29.98S
TERRE HAUTE    CLEAR     70  38  31 W9        30.02F

$$

INZ030>032-037>040-046>048-054>057-064-065-270000-
CENTRAL INDIANA

CITY           SKY/WX    TMP DP  RH WIND       PRES   REMARKS
COLUMBUS       CLEAR     66  50  55 SW6       30.03F
FISHERS *+     CLEAR     66  46  48 W6        30.00F
FRANKFORT +    MOCLDY    70  36  28 W10       30.01S
GREENWOOD *+   CLEAR     68  41  37 W9        30.02F
INDIANAPOLIS   PTCLDY    67  42  40 W12       30.01S
-EAGLE CREEK   CLEAR     69  38  32 W8        30.00S
MARION +       CLEAR     68  37  31 W9G21     29.98S
MT COMFORT *+  CLEAR     66  39  37 W10       30.01S
SHELBYVILLE    CLEAR     67  44  43 SW6       30.01S
ZIONSVILLE +   CLEAR     65  40  39 W10       30.01S

$$

INZ033-034-041-042-049-050-058-059-270000-
EAST CENTRAL INDIANA

CITY           SKY/WX    TMP DP  RH WIND       PRES   REMARKS
MUNCIE         CLEAR     69  39  33 W8        29.98S

$$

INZ060-061-067>069-081>083-085>088-270000-
SOUTHWEST INDIANA

CITY           SKY/WX    TMP DP  RH WIND       PRES   REMARKS
EVANSVILLE     CLEAR     71  47  42 W3        30.06F
HUNTINGBURG *+   N/A     70  48  46 W5        30.06F
WASHINGTON +   CLEAR     68  47  45 MISG      30.04S

$$

INZ062-063-066-070>080-084-089>092-270000-
SOUTH CENTRAL AND SOUTHEAST INDIANA

CITY           SKY/WX    TMP DP  RH WIND       PRES   REMARKS
BLOOMINGTON    CLEAR     67  50  54 SW5       30.04S
MADISON *+     MOCLDY    66  48  52 W3        30.07R
NORTH VERNON + CLEAR     66  59  77 W6        30.05S
SEYMOUR +      CLEAR     68  48  49 W5        30.05R

$$




USA.gov is the U.S. government's official web portal to all federal, state and local government web resources and services.